Temp
89 83 80 87 90 91 90 87 85 89 92 87 87 87 87 90 91 90 91 89 90 91 94 95 94 95 94 93 91 89 88 88 89 88 89 90 90 91 88 89 90 89 88 89
84 78 88 92 91 89 89 86 86 90 89 87 87 85 90 90 88 90 91 90 90 92 93 92 93 94 94 92 90 89 88 87 87 90 87 92 91 93 94 92 89 89 89 88
80 85 91 88 87 85 87 85 86 85 86 89 88 83 86 91 92 91 93 94 93 92 92 92 92 93 94 92 90 89 87 87 88 88 90 88 89 89 90 91 91 91 90 89
83 91 86 84 83 87 81 91 89 87 82 76 87 75 85 90 89 89 90 93 94 93 94 95 94 93 93 93 93 90 89 87 88 88 89 86 88 88 92 92 93 92 90 89
79 83 81 80 84 90 85 93 88 88 83 83 82 77 84 88 86 90 92 93 95 97 96 95 96 95 95 95 94 92 89 87 88 87 87 88 85 91 92 91 88 87 87 88
85 91 88 87 90 91 92 88 87 88 85 73 81 79 80 86 86 92 95 95 95 97 97 97 98 97 96 96 95 94 89 87 87 87 86 85 86 87 90 88 88 90 90 88
80 82 88 90 85 90 88 84 72 69 70 70 85 79 81 92 95 96 98 97 97 98 98 97 96 96 94 94 93 93 89 85 87 87 86 85 85 86 85 86 88 89 90 90
72 69 82 88 86 83 83 84 74 61 67 72 82 73 82 94 98 100 100 102 100 98 98 97 96 96 95 94 93 91 89 86 87 87 86 86 86 89 89 88 91 91 92 91
74 73 87 88 89 90 83 78 90 80 81 75 79 81 89 94 95 97 98 98 99 98 99 98 98 97 96 94 92 91 89 87 87 88 86 85 86 86 89 88 87 90 88 92
81 71 85 86 90 90 88 90 77 80 65 63 74 76 78 85 90 95 97 98 100 101 100 100 100 98 97 97 95 92 90 87 88 89 88 88 87 87 87 87 85 87 87 87
86 78 78 83 79 80 82 80 82 84 79 69 67 74 90 89 93 95 99 100 101 103 101 100 101 101 98 98 97 94 92 89 89 89 89 88 88 88 87 86 81 83 85 84
85 80 71 76 87 90 88 82 83 73 70 77 76 77 97 96 96 98 99 102 105 104 104 102 102 101 99 96 98 96 95 93 92 92 89 88 88 88 87 84 85 81 83 82
85 76 68 71 81 85 81 84 86 85 84 74 70 75 95 95 95 97 97 101 101 98 99 100 101 98 97 97 95 96 96 97 97 94 91 89 88 87 86 85 81 82 81 78
79 79 72 69 72 81 74 79 83 84 76 76 77 80 88 92 92 95 97 99 100 97 95 96 97 97 96 95 94 94 96 99 98 97 93 89 87 86 86 85 81 80 75 78
81 70 76 78 81 82 81 79 79 77 79 75 80 80 86 91 93 95 99 100 99 95 93 92 95 95 94 93 92 92 94 95 97 94 93 90 88 86 85 82 79 80 75 73
81 70 74 72 79 80 77 82 82 81 81 81 82 81 93 96 96 95 97 99 97 96 93 92 92 94 92 92 91 92 92 92 92 92 90 90 87 84 83 80 78 78 77 73
75 73 70 66 77 76 70 78 81 82 84 82 76 84 91 91 92 94 95 97 97 98 95 93 93 93 93 94 92 91 90 92 90 88 89 88 86 82 79 78 77 76 75 74
72 70 72 68 71 58 78 88 87 83 85 88 87 88 91 92 95 97 98 97 98 99 99 96 97 96 95 96 95 92 92 89 88 86 87 87 84 80 77 75 74 76 76 72
78 72 69 65 65 73 77 78 77 78 78 88 87 89 92 95 96 92 97 97 96 98 99 99 99 98 94 94 93 90 89 88 87 86 85 85 84 80 76 75 73 74 76 74
77 74 71 67 61 59 67 73 77 76 68 88 90 89 90 93 84 87 93 92 93 95 95 94 96 96 94 93 93 88 87 86 85 86 86 85 83 81 77 76 74 75 75 73
67 68 66 67 64 70 69 73 77 63 70 77 83 91 91 88 90 87 88 89 92 92 91 92 92 91 90 91 89 86 87 86 89 89 87 84 83 79 76 76 76 72 71 73
65 64 67 68 62 59 72 73 66 69 78 80 81 84 89 88 84 85 85 85 87 87 89 91 88 87 88 88 87 85 85 87 87 86 85 81 77 77 78 74 72 71 72 74
65 73 70 70 70 70 73 69 72 78 76 79 81 83 84 85 84 84 84 85 86 87 88 89 86 84 86 87 86 84 81 83 82 81 79 74 73 75 75 72 71 72 71 71
71 77 72 67 67 70 72 73 74 77 78 80 82 84 85 82 84 83 83 83 84 85 85 86 85 83 80 82 81 80 80 79 79 74 72 73 72 70 71 74 72 71 72 70
67 69 69 67 69 71 71 70 70 72 77 78 81 82 81 81 80 81 79 79 81 82 83 84 83 81 79 79 78 79 78 79 77 76 76 76 77 72 64 61 55 68 62 60
56 56 69 67 72 68 56 64 68 69 71 76 77 78 81 81 79 79 76 76 78 80 80 81 80 80 78 79 78 77 79 80 79 78 80 81 74 72 74 74 72 45 47 45
MSLP
1001.48 1000.91 999.54 999.14 998.90 998.42 997.96 998.24 998.28 998.87 999.90 1001.16 1001.19 1001.74 1002.61 1003.71 1004.25 1004.53 1005.29 1006.34 1006.90 1007.37 1008.07 1008.96 1009.73 1010.37 1010.99 1011.64 1012.40 1013.16 1013.73 1014.15 1014.65 1015.08 1014.91 1015.04 1015.02 1015.38 1016.13 1016.20 1016.18 1016.39 1016.50 1016.59
1000.72 999.57 999.38 999.19 999.07 998.60 997.90 997.73 997.85 998.39 999.98 1000.76 1000.42 1000.96 1001.70 1002.43 1003.40 1003.88 1004.36 1005.15 1005.92 1006.50 1007.26 1008.18 1008.94 1009.59 1010.21 1010.96 1011.77 1012.55 1013.20 1013.79 1014.30 1014.37 1014.67 1014.52 1014.67 1014.64 1014.71 1015.16 1015.65 1016.10 1016.11 1016.36
999.12 998.89 999.18 999.01 998.61 998.32 997.89 997.40 997.51 997.99 999.81 1000.25 999.93 1000.18 1000.59 1001.16 1002.16 1002.98 1003.56 1004.07 1004.82 1005.41 1006.12 1007.01 1007.90 1008.62 1009.37 1010.14 1011.03 1011.80 1012.59 1013.19 1013.72 1014.03 1014.23 1014.68 1014.90 1015.08 1014.92 1014.86 1015.08 1015.23 1015.71 1015.97
998.92 998.48 998.69 998.80 998.25 998.01 997.23 997.43 997.56 997.92 998.87 998.87 999.65 998.43 998.58 999.36 1000.42 1001.56 1002.35 1002.90 1003.45 1004.21 1005.10 1005.82 1006.72 1007.62 1008.38 1009.25 1010.16 1010.94 1011.77 1012.52 1013.03 1013.51 1013.52 1013.87 1013.92 1013.88 1013.85 1014.31 1014.59 1015.00 1015.51 1015.77
997.95 998.13 998.41 998.04 997.59 997.63 997.13 997.19 997.84 997.78 998.34 998.27 998.32 998.66 997.56 998.34 998.80 999.43 1000.43 1001.23 1002.08 1002.74 1003.71 1004.59 1005.38 1006.39 1007.38 1008.36 1009.07 1009.90 1010.89 1011.67 1012.25 1012.77 1013.19 1013.35 1013.85 1013.54 1013.79 1014.11 1014.70 1015.11 1015.34 1015.63
997.70 998.14 997.97 997.62 997.60 997.49 997.79 997.60 997.74 997.79 997.75 997.09 997.08 997.58 996.94 996.84 997.69 997.83 998.50 999.70 1000.58 1001.47 1002.49 1003.50 1004.44 1005.45 1006.36 1007.29 1008.14 1008.93 1009.88 1010.77 1011.53 1012.10 1012.65 1012.93 1013.07 1013.38 1013.23 1013.88 1014.21 1014.38 1014.76 1015.35
997.50 997.19 997.45 997.30 997.05 997.25 997.36 997.10 996.96 997.12 996.64 996.04 996.46 996.74 996.61 996.00 996.22 996.64 996.64 997.74 999.28 1000.43 1001.45 1002.35 1003.28 1004.21 1005.27 1006.09 1007.06 1007.96 1008.96 1009.84 1010.61 1011.24 1011.80 1012.42 1012.87 1013.22 1013.41 1013.71 1013.92 1013.84 1014.12 1014.57
996.16 996.13 996.35 996.42 995.88 995.66 996.10 996.01 995.18 995.21 995.55 995.92 996.39 995.54 995.53 996.31 996.14 996.02 996.18 996.50 997.58 999.04 1000.00 1000.95 1002.08 1003.15 1004.14 1005.10 1006.08 1007.11 1007.96 1008.94 1009.64 1010.34 1011.07 1011.74 1012.30 1012.60 1012.94 1013.26 1013.17 1013.50 1013.68 1014.27
994.80 994.97 995.45 995.79 995.98 995.42 995.26 995.20 995.43 994.93 995.25 995.17 994.94 995.61 996.10 995.61 995.45 995.27 995.39 996.03 996.36 997.47 998.52 999.69 1000.75 1001.82 1002.93 1004.09 1004.99 1005.94 1006.90 1007.88 1008.66 1009.32 1010.26 1010.89 1011.53 1011.97 1011.96 1012.56 1013.26 1013.49 1013.84 1013.85
994.60 994.78 994.74 995.30 995.75 995.09 994.16 995.10 995.17 994.43 993.97 993.98 994.31 994.12 993.97 994.57 994.42 994.31 994.30 994.76 995.34 996.26 997.34 998.23 999.27 1000.47 1001.71 1002.75 1003.86 1005.02 1006.02 1006.86 1007.59 1008.39 1009.19 1009.90 1010.55 1011.16 1011.62 1012.13 1012.64 1012.99 1013.72 1014.26
994.60 995.01 994.35 995.07 994.34 993.89 994.44 994.04 993.99 994.25 994.18 993.54 993.54 993.02 993.60 993.84 993.59 993.33 993.19 993.75 994.29 994.94 995.93 996.98 997.88 999.16 1000.61 1001.71 1002.70 1003.84 1005.01 1005.89 1006.63 1007.18 1007.88 1008.82 1009.44 1010.10 1010.90 1011.65 1012.66 1013.14 1013.48 1014.01
994.27 994.45 994.20 993.89 993.71 994.27 993.62 993.93 993.82 993.29 993.66 993.40 993.18 992.01 992.53 992.71 993.26 993.18 993.05 992.96 993.19 994.01 994.67 995.96 997.02 998.24 999.40 1000.54 1001.45 1002.47 1003.52 1004.41 1005.19 1005.88 1006.88 1007.70 1008.52 1009.22 1010.04 1010.84 1011.69 1012.63 1012.73 1013.74
993.96 994.03 993.93 993.79 993.73 993.93 993.26 993.19 993.30 993.54 993.49 992.04 992.42 992.16 992.61 992.82 992.96 992.73 992.79 992.86 993.32 994.24 994.72 995.41 996.34 997.26 998.37 999.46 1000.48 1001.17 1002.18 1002.89 1003.89 1004.96 1005.89 1006.75 1007.45 1008.20 1009.15 1009.93 1011.00 1011.66 1012.62 1013.04
994.42 993.70 993.42 992.31 992.25 992.51 993.15 993.16 992.93 992.68 991.99 991.98 991.10 991.67 991.79 991.90 992.28 992.37 992.45 992.65 993.06 993.95 994.74 995.25 995.98 996.69 997.73 998.73 999.55 1000.28 1001.16 1002.02 1002.85 1003.72 1004.83 1005.80 1006.67 1007.58 1008.64 1009.41 1010.56 1011.05 1012.11 1012.66
994.57 993.89 993.43 993.16 992.44 991.96 991.77 992.02 992.67 992.08 991.68 991.34 991.26 991.07 991.51 991.52 991.78 991.90 991.91 992.00 992.56 993.57 994.48 994.88 995.42 996.14 997.18 998.15 999.00 999.97 1000.73 1001.41 1002.04 1003.07 1004.05 1005.10 1006.26 1007.33 1008.31 1009.12 1009.92 1010.41 1011.12 1012.00
994.36 993.98 993.80 992.93 992.57 992.16 991.41 990.94 991.07 991.33 991.62 991.24 991.44 990.38 990.96 991.34 991.71 991.61 991.64 991.67 991.99 992.74 993.80 994.39 995.23 995.98 996.66 997.32 998.38 999.36 1000.19 1000.97 1001.96 1002.66 1003.54 1004.55 1005.63 1006.69 1007.51 1008.48 1009.41 1010.05 1010.37 1010.93
993.80 993.77 993.48 992.45 991.83 991.49 990.99 990.52 990.06 990.05 990.34 990.49 989.82 990.06 990.94 990.55 990.54 990.83 991.05 991.25 991.40 991.80 992.64 993.52 994.20 994.92 995.91 996.89 997.98 998.80 999.79 1000.65 1001.48 1002.34 1002.99 1003.84 1004.83 1005.83 1006.76 1007.63 1008.52 1009.01 1009.77 1010.64
993.86 993.72 993.15 992.50 991.95 991.38 990.07 989.81 989.99 989.85 989.57 989.51 989.48 989.79 989.81 989.99 990.11 990.28 990.51 990.73 990.81 991.19 991.65 992.69 993.74 994.68 995.74 996.50 997.53 998.53 999.30 1000.14 1000.95 1001.81 1002.64 1003.54 1004.56 1005.66 1006.74 1007.51 1008.03 1008.48 1009.38 1009.88
993.99 993.66 992.82 992.39 991.84 991.09 990.67 991.50 991.61 990.83 989.73 989.30 989.04 989.35 989.37 989.60 989.88 990.05 990.44 990.68 990.75 991.00 991.45 992.01 993.14 994.04 995.25 995.97 996.92 998.05 998.98 999.88 1000.62 1001.30 1002.20 1003.18 1003.84 1004.83 1005.85 1006.72 1007.51 1008.10 1008.48 1008.90
993.21 993.67 993.10 992.52 991.92 991.48 993.13 993.89 993.79 993.67 990.96 989.50 988.93 988.88 989.07 989.36 989.31 989.56 990.32 991.07 991.05 991.38 991.80 992.39 993.31 994.08 994.92 995.61 996.54 997.63 998.76 999.59 1000.20 1000.83 1001.54 1002.70 1003.53 1004.19 1005.02 1005.45 1006.64 1007.54 1008.29 1008.72
992.15 992.58 992.05 992.07 992.36 992.54 994.35 994.43 994.00 993.85 992.15 991.15 989.84 988.50 988.82 989.19 989.67 990.90 991.36 991.15 991.43 991.84 992.26 992.98 993.93 994.22 994.98 995.75 996.69 997.55 998.45 999.24 999.85 1000.37 1001.43 1002.52 1003.32 1004.01 1004.94 1004.83 1006.07 1007.27 1008.10 1008.36
991.54 991.80 991.31 991.83 992.80 993.52 994.98 994.63 994.39 994.78 993.17 991.77 990.68 989.79 989.37 989.94 991.29 991.80 992.26 991.95 992.41 992.94 992.99 993.66 994.72 995.29 995.80 996.41 997.04 997.90 998.58 999.31 999.94 1000.74 1001.72 1002.87 1003.95 1004.73 1005.47 1005.63 1006.29 1007.42 1007.55 1007.66
991.16 990.91 990.91 992.88 993.10 994.81 995.66 995.93 995.74 995.28 994.45 993.02 991.73 991.34 991.60 991.99 991.88 992.29 992.65 992.94 993.70 993.93 993.91 994.41 995.27 996.06 996.81 997.25 997.65 997.89 998.84 999.95 1000.18 1000.90 1001.79 1002.76 1003.33 1004.30 1005.15 1006.32 1006.97 1007.58 1007.91 1007.75
991.97 991.86 992.20 993.93 995.14 995.72 996.10 996.74 996.89 996.58 995.75 994.92 994.01 993.31 993.47 993.59 993.89 993.89 993.49 994.21 994.71 994.95 995.12 995.57 996.03 996.65 997.46 997.91 998.75 999.04 999.90 1000.49 1000.95 1001.82 1002.61 1003.49 1004.20 1004.20 1005.24 1006.34 1007.24 1007.62 1007.68 1007.86
994.56 994.35 993.84 994.30 995.46 996.19 996.88 997.71 998.40 997.68 997.23 996.68 995.81 995.55 995.68 995.32 995.50 994.93 995.57 995.42 996.17 995.64 995.93 996.57 997.03 997.67 998.08 998.74 999.31 999.78 1000.52 1001.07 1001.52 1002.15 1002.66 1003.34 1003.86 1004.38 1005.98 1007.30 1008.13 1007.96 1008.36 1008.92
998.54 997.39 995.11 994.68 995.70 996.43 998.57 999.36 999.60 998.91 998.42 997.49 997.10 996.84 996.96 996.77 996.72 996.58 997.29 996.98 996.56 997.48 996.95 997.51 998.34 998.83 999.13 999.53 1000.08 1000.67 1000.97 1001.34 1001.92 1002.04 1002.45 1003.13 1004.27 1004.86 1005.73 1006.87 1007.60 1008.76 1009.17 1009.44
Wind_Speed
20 18 21 23 22 21 16 15 14 14 14 16 15 14 13 11 15 16 17 18 19 20 19 19 19 18 17 16 15 15 15 13 11 10 9 9 8 8 7 7 9 8 7 8
16 22 21 20 21 23 19 19 16 12 8 15 14 15 13 13 16 17 18 19 19 19 19 19 19 19 19 17 16 15 15 15 13 9 8 7 5 6 6 4 5 6 8 7
18 17 20 21 22 24 22 21 18 14 11 15 11 14 15 17 16 16 18 19 21 21 21 21 21 20 19 19 18 16 16 15 15 14 9 7 7 6 6 7 6 6 7 6
21 17 21 19 24 22 23 22 18 18 15 13 16 12 14 17 18 18 20 21 21 22 21 21 22 22 21 19 18 17 17 16 15 15 12 12 9 8 6 4 3 3 5 6
19 21 20 24 22 24 23 18 17 17 17 18 16 11 12 4 14 20 23 23 23 23 23 23 22 22 21 20 18 17 18 17 16 15 14 11 12 8 7 5 4 7 6 7
22 14 19 22 20 22 20 13 15 17 17 20 21 16 14 13 15 18 17 23 24 24 22 22 21 21 20 20 19 18 18 17 17 16 16 15 13 12 8 8 7 7 7 8
22 20 16 17 23 24 23 19 12 15 16 16 19 19 15 9 13 16 15 21 23 22 22 22 22 22 21 22 21 19 17 17 18 18 17 17 16 14 12 10 9 7 7 7
19 23 26 16 26 25 27 25 15 24 15 15 20 16 18 18 20 19 9 11 20 23 23 24 23 22 22 23 22 20 18 18 19 19 18 15 16 12 11 12 9 8 7 7
20 25 25 21 19 26 25 28 24 23 19 18 17 15 22 14 17 17 15 14 15 22 25 26 25 25 23 22 22 21 20 19 19 20 15 16 15 16 12 11 11 8 7 7
12 14 20 23 19 25 26 21 25 20 25 21 20 21 12 19 21 19 16 15 18 19 22 24 25 25 23 23 22 22 21 19 20 19 18 16 17 16 15 13 13 11 9 9
22 14 17 21 28 24 21 18 21 22 21 19 18 17 15 14 12 13 13 15 15 17 20 22 23 24 23 22 22 21 21 21 20 19 18 17 17 18 16 14 9 11 11 12
24 14 16 19 19 26 24 24 26 18 24 19 22 17 19 22 19 20 18 13 12 11 15 19 21 21 23 23 22 21 21 21 21 19 18 19 17 17 17 15 16 12 13 12
19 14 15 19 19 16 24 28 27 26 22 26 22 18 12 9 10 13 12 12 9 9 12 15 18 20 22 22 20 22 22 22 21 19 19 18 18 19 17 17 14 15 14 12
6 19 23 17 21 19 24 22 27 28 23 20 25 20 22 22 18 17 13 13 13 9 11 15 17 19 20 19 18 19 20 19 19 19 19 17 17 17 17 15 17 16 12 15
15 15 14 20 22 19 23 28 28 29 30 28 22 28 22 22 18 19 17 16 13 11 13 17 19 19 19 19 17 17 17 17 16 17 16 16 14 14 15 17 17 18 16 15
14 13 17 21 23 24 27 27 30 31 29 28 32 31 22 24 24 21 22 18 17 15 16 17 18 18 20 20 18 17 16 15 14 14 15 14 14 14 16 16 17 17 17 17
14 14 11 15 17 16 24 25 26 28 32 28 29 23 25 27 22 25 20 20 18 18 17 18 21 20 17 16 15 16 15 14 15 14 14 15 15 14 14 15 18 18 19 17
9 15 11 13 8 18 15 21 23 26 26 29 27 23 25 25 21 20 20 18 17 18 14 15 15 15 15 14 15 15 15 15 15 15 14 14 14 13 13 14 16 18 17 17
18 12 11 12 14 17 9 8 11 15 25 25 24 23 23 26 23 16 14 14 15 13 11 12 13 14 15 16 16 15 14 14 15 15 15 15 16 16 14 15 16 15 18 16
19 16 13 9 15 17 7 10 9 11 15 23 26 24 24 19 15 17 11 12 10 9 11 12 15 16 17 16 17 16 15 15 15 15 15 15 15 15 16 17 16 14 15 14
17 15 19 10 11 5 5 10 1 10 6 19 21 27 26 22 11 4 6 9 8 9 13 15 15 15 16 16 16 16 15 14 13 13 12 13 13 12 12 14 12 13 13 13
18 15 12 7 10 12 7 2 3 10 14 13 10 14 15 8 12 13 12 15 15 16 18 18 15 14 14 15 14 14 13 11 11 11 10 9 7 7 8 9 10 12 13 15
18 15 8 9 3 8 7 6 3 7 7 11 5 7 12 16 19 19 18 19 16 16 15 17 15 14 11 9 8 12 11 10 11 11 11 9 10 12 9 7 8 9 8 9
4 6 7 11 6 12 12 13 12 10 9 11 11 14 14 16 15 16 17 16 14 14 14 13 14 13 11 10 9 11 9 9 10 10 9 9 9 8 8 6 7 7 6 6
7 6 10 10 13 15 14 12 7 9 10 12 15 16 14 15 14 17 15 15 13 14 13 12 12 11 11 9 10 10 10 10 11 11 11 10 9 9 9 8 7 4 7 4
10 7 5 10 15 12 6 9 8 6 10 11 14 16 16 17 16 17 14 11 15 9 12 11 9 10 10 11 11 11 11 11 11 11 10 8 9 8 7 6 6 13 10 6
Wind_Direction
192 204 209 205 214 228 224 207 213 207 157 203 208 217 171 192 212 211 196 197 201 204 199 198 199 199 202 202 199 203 207 203 207 205 210 214 227 221 215 227 247 243 236 240
184 216 208 217 214 229 240 219 220 193 165 218 205 223 227 196 212 215 211 203 209 206 201 199 200 203 203 202 205 206 211 208 209 208 217 241 235 238 249 200 256 240 229 215
209 204 220 213 214 221 225 231 219 199 185 221 243 229 225 215 210 216 219 216 209 212 206 201 203 204 205 205 206 209 211 213 211 225 209 207 237 239 234 229 227 211 222 207
223 212 208 207 224 214 223 224 237 209 189 220 206 242 205 215 207 212 214 213 215 210 211 208 204 206 207 208 207 209 211 210 212 209 221 216 228 231 224 236 229 213 208 197
201 212 198 213 213 213 230 220 224 237 211 235 176 244 254 179 223 216 215 212 213 214 210 209 207 205 207 205 206 208 209 209 213 203 222 208 225 223 227 209 193 229 176 205
228 201 217 223 213 222 221 242 224 229 225 231 229 208 235 211 226 234 224 212 211 209 209 209 208 204 204 205 207 207 205 207 205 205 206 216 221 227 222 199 200 208 199 191
215 193 206 217 211 211 208 205 202 216 221 236 212 233 230 247 214 237 242 206 209 209 206 205 206 200 201 203 205 207 202 204 202 203 208 211 215 216 222 217 214 218 208 202
206 209 207 191 215 200 213 214 222 213 220 221 239 230 228 237 265 266 250 250 192 206 206 205 202 205 203 202 203 205 199 203 203 204 207 209 211 216 217 212 229 213 214 206
203 226 191 212 214 219 201 219 228 242 224 242 222 208 245 246 254 259 245 214 207 202 207 204 202 205 204 203 203 201 201 199 201 203 202 206 206 216 212 218 208 215 218 198
210 230 216 197 211 218 231 209 219 230 236 222 238 233 214 224 229 234 224 219 216 206 206 208 205 202 202 202 204 204 202 200 200 202 202 206 205 206 213 208 207 205 207 217
227 222 200 209 208 206 208 231 220 234 225 243 230 231 213 242 237 238 230 212 226 213 206 207 208 203 199 204 203 203 203 204 204 202 200 202 204 204 206 209 184 197 198 191
217 209 235 214 207 220 215 215 218 224 224 235 252 243 224 218 228 247 249 256 239 230 217 206 204 202 200 204 204 200 203 205 205 203 197 199 200 202 202 207 191 200 182 188
202 225 213 231 202 214 231 219 222 219 237 222 227 230 226 194 233 253 241 253 256 241 222 206 204 194 202 202 203 205 204 206 206 203 200 203 202 201 205 198 189 180 188 160
311 226 218 221 221 210 206 233 235 235 230 235 242 239 225 223 234 243 235 249 258 233 224 207 203 197 199 202 201 204 207 208 207 204 206 204 205 202 206 199 189 175 170 167
215 240 230 239 261 247 228 213 221 235 240 239 236 238 228 240 223 241 254 254 254 232 218 203 200 198 195 198 200 202 207 206 212 204 209 207 203 206 206 198 185 186 167 167
210 236 241 247 241 245 249 240 224 222 234 241 242 247 236 224 244 243 248 250 246 237 218 204 201 199 198 196 194 191 196 200 199 208 206 207 195 199 202 192 193 188 182 174
212 225 209 234 220 241 238 239 241 234 225 231 235 238 233 240 232 233 236 239 240 234 213 202 201 202 197 190 187 183 185 186 187 198 199 197 196 195 190 190 196 195 191 188
214 226 226 242 227 233 245 234 237 245 238 229 234 238 224 239 231 228 234 244 242 240 221 206 203 197 186 180 176 177 176 179 182 185 195 194 192 194 185 196 198 198 192 189
224 219 218 239 230 248 245 28 337 278 248 240 242 233 234 229 228 256 248 243 241 245 221 199 194 176 173 176 167 166 168 172 176 180 186 188 187 188 186 192 196 198 201 198
213 220 245 186 248 244 66 355 326 306 257 239 235 223 227 230 229 239 187 219 219 214 182 180 177 165 165 166 156 154 160 167 177 179 180 186 185 188 188 189 186 196 201 202
192 205 215 193 234 192 36 342 118 225 310 322 302 229 226 231 236 74 157 138 145 148 144 141 153 147 144 142 145 153 160 172 173 167 173 180 186 185 186 180 180 183 194 198
187 197 209 203 220 217 4 244 264 346 319 312 277 275 238 171 145 132 124 116 119 122 123 120 123 122 128 139 146 147 154 148 150 149 154 161 168 185 197 171 169 195 200 204
202 205 183 239 195 82 66 65 41 313 1 13 82 125 149 146 130 121 113 105 105 103 104 105 107 105 107 117 146 141 127 149 146 153 151 150 158 175 154 169 183 205 206 218
100 159 146 167 132 104 85 81 48 37 66 65 66 85 107 113 113 111 102 101 101 98 95 102 107 106 100 95 88 102 119 128 132 126 132 145 154 132 138 180 194 211 199 209
17 311 154 107 131 112 81 60 34 60 68 65 78 83 85 83 80 85 85 91 80 86 82 82 87 91 95 96 102 110 124 140 139 141 138 142 131 98 83 73 31 2 54 15
344 356 214 167 157 104 85 57 10 55 56 67 75 72 69 71 67 69 61 52 76 77 91 90 95 109 113 121 119 122 127 130 136 133 136 132 118 127 143 155 133 60 37 9